Fairacres, NM

11:54 PM MDT on August 25, 2016 (GMT -0600)
Las Cruces International

Weather History for KLRU - December, 2013

Change the Weather History Date:

Tuesday, December 10, 2013

  Actual Average Record
Temperature  
Mean Temperature 31 °F -  
Max Temperature 45 °F 53 °F 73 °F (2015)
Min Temperature 17 °F 30 °F 17 °F (2013)
Degree Days  
Heating Degree Days 34    
Moisture  
Dew Point -1 °F    
Average Humidity 25    
Maximum Humidity 44    
Minimum Humidity 13    
Precipitation  
Precipitation 0.00 in - - ()
Sea Level Pressure  
Sea Level Pressure 30.30 in    
Wind  
Wind Speed 8 mph (NNE)    
Max Wind Speed 17 mph    
Max Gust Speed 21 mph    
Visibility 10 miles    
Events      
Averages and records for this station are not official NWS values.
T = Trace of Precipitation, MM = Missing Value Source: NWS Daily Summary

Daily Weather History Graph

Daily Weather History Graph

Search for Another Location

Airport or City:

Trip Planner

Search our weather history database for the weather conditions in past years. The results will help you decide how hot, cold, wet, or windy it might be!

Date:

Astronomy

Dec. 10, 2013 Rise Set
Actual Time 6:58 AM MST 5:03 PM MST
Civil Twilight 6:31 AM MST 5:30 PM MST
Nautical Twilight 6:00 AM MST 6:00 PM MST
Astronomical Twilight 5:30 AM MST 6:30 PM MST
Moon 12:48 PM MST (12/10) 12:38 AM MST (12/10)
Length of Visible Light 10h 58m
Length of Day
10h 04m
Waxing Gibbous, 62% of the Moon is Illuminated
Dec 10
Waxing Gibbous
Dec 17
Full
Dec 25
Last Quarter
Jan 1
New
Jan 7
First Quarter

Hourly Weather History & Observations

Time (MST) Temp. Windchill Dew Point Humidity Pressure Visibility Wind Dir Wind Speed Gust Speed Precip Events Conditions
12:15 AM 27.3 °F 16.6 °F -0.6 °F 30% 30.37 in 10.0 mi NNW 12.7 mph - N/A   Clear
12:35 AM 26.6 °F 15.2 °F -0.9 °F 30% 30.36 in 10.0 mi NNW 13.8 mph - N/A   Clear
12:55 AM 26.1 °F 13.1 °F -1.3 °F 31% 30.36 in 10.0 mi NNW 17.3 mph - N/A   Clear
1:15 AM 25.7 °F 14.6 °F -1.7 °F 31% 30.36 in 10.0 mi NNW 12.7 mph - N/A   Clear
1:35 AM 25.5 °F 13.3 °F -2.2 °F 30% 30.36 in 10.0 mi NNW 15.0 mph 18.4 mph N/A   Clear
1:55 AM 25.7 °F 13.5 °F -1.8 °F 30% 30.36 in 10.0 mi NNW 15.0 mph 20.7 mph N/A   Clear
2:15 AM 25.7 °F 15.1 °F -1.7 °F 31% 30.36 in 10.0 mi North 11.5 mph - N/A   Clear
2:35 AM 25.3 °F 16.0 °F -1.5 °F 31% 30.35 in 10.0 mi North 9.2 mph - N/A   Clear
2:55 AM 24.3 °F 15.4 °F -1.8 °F 32% 30.35 in 10.0 mi NNW 8.1 mph - N/A   Clear
3:15 AM 25.9 °F 16.0 °F -2.2 °F 30% 30.36 in 10.0 mi North 10.4 mph - N/A   Clear
3:35 AM 25.2 °F 20.9 °F -2.4 °F 30% 30.36 in 10.0 mi NNE 3.5 mph - N/A   Clear
3:55 AM 23.9 °F 13.5 °F -2.0 °F 32% 30.34 in 10.0 mi North 10.4 mph - N/A   Clear
4:15 AM 26.4 °F 14.5 °F -3.1 °F 28% 30.34 in 10.0 mi North 15.0 mph - N/A   Clear
4:35 AM 25.7 °F 14.0 °F -2.7 °F 29% 30.34 in 10.0 mi North 13.8 mph 17.3 mph N/A   Clear
4:55 AM 25.3 °F 13.6 °F -2.4 °F 30% 30.34 in 10.0 mi North 13.8 mph 18.4 mph N/A   Clear
5:15 AM 25.5 °F 16.2 °F -2.2 °F 30% 30.34 in 10.0 mi North 9.2 mph - N/A   Clear
5:35 AM 22.3 °F - -2.9 °F 33% 30.35 in 10.0 mi Calm Calm - N/A   Clear
5:55 AM 19.9 °F - -2.7 °F 37% 30.35 in 10.0 mi Calm Calm - N/A   Clear
6:15 AM 21.2 °F 16.4 °F -2.2 °F 36% 30.35 in 10.0 mi ESE 3.5 mph - N/A   Clear
6:35 AM 19.2 °F - -1.5 °F 40% 30.36 in 10.0 mi Calm Calm - N/A   Clear
6:55 AM 19.0 °F 12.3 °F -1.1 °F 41% 30.36 in 10.0 mi SE 4.6 mph - N/A   Clear
7:15 AM 17.8 °F - -0.9 °F 44% 30.37 in 10.0 mi Calm Calm - N/A   Clear
7:35 AM 20.8 °F 16.0 °F -0.4 °F 40% 30.37 in 10.0 mi SE 3.5 mph - N/A   Clear
7:55 AM 22.8 °F 16.7 °F -0.0 °F 37% 30.38 in 10.0 mi SSE 4.6 mph - N/A   Clear
8:15 AM 25.0 °F 20.7 °F -0.2 °F 34% 30.38 in 10.0 mi ESE 3.5 mph - N/A   Clear
8:35 AM 26.4 °F - -0.4 °F 31% 30.38 in 10.0 mi Calm Calm - N/A   Clear
8:55 AM 28.4 °F 24.6 °F -0.2 °F 29% 30.38 in 10.0 mi SE 3.5 mph - N/A   Clear
9:15 AM 29.1 °F 25.4 °F -0.4 °F 28% 30.39 in 10.0 mi South 3.5 mph - N/A   Clear
9:35 AM 30.6 °F - -0.2 °F 27% 30.40 in 10.0 mi Calm Calm - N/A   Clear
9:55 AM 32.0 °F 26.4 °F -0.4 °F 25% 30.39 in 10.0 mi ENE 5.8 mph - N/A   Clear
10:15 AM 33.6 °F 26.2 °F 0.1 °F 24% 30.38 in 10.0 mi NE 9.2 mph - N/A   Clear
10:35 AM 34.5 °F 27.3 °F -0.2 °F 23% 30.37 in 10.0 mi NE 9.2 mph - N/A   Clear
10:55 AM 35.6 °F 29.9 °F -0.4 °F 22% 30.37 in 10.0 mi ENE 6.9 mph - N/A   Clear
11:15 AM 37.0 °F 32.4 °F -0.2 °F 21% 30.36 in 10.0 mi ENE 5.8 mph - N/A   Clear
11:35 AM 38.5 °F 33.4 °F -0.0 °F 20% 30.34 in 10.0 mi NE 6.9 mph - N/A   Clear
11:55 AM 38.8 °F - -1.5 °F 18% 30.33 in 10.0 mi Calm Calm - N/A   Clear
12:15 PM 40.6 °F 36.7 °F -0.6 °F 18% 30.31 in 10.0 mi East 5.8 mph - N/A   Clear
12:35 PM 41.2 °F 38.2 °F -1.3 °F 17% 30.30 in 10.0 mi NNE 4.6 mph - N/A   Clear
12:55 PM 41.9 °F 40.0 °F -1.8 °F 16% 30.28 in 10.0 mi North 3.5 mph - N/A   Clear
1:15 PM 43.3 °F 39.9 °F -2.2 °F 15% 30.27 in 10.0 mi ENE 5.8 mph - N/A   Clear
1:35 PM 43.5 °F 40.9 °F -2.9 °F 14% 30.27 in 10.0 mi ENE 4.6 mph - N/A   Clear
1:55 PM 43.9 °F 40.5 °F -2.0 °F 15% 30.25 in 10.0 mi NE 5.8 mph - N/A   Clear
2:15 PM 44.4 °F 42.0 °F -2.7 °F 14% 30.24 in 10.0 mi ENE 4.6 mph - N/A   Clear
2:35 PM 44.4 °F - -1.3 °F 15% 30.23 in 10.0 mi Calm Calm - N/A   Clear
2:55 PM 45.0 °F - -1.8 °F 14% 30.23 in 10.0 mi Calm Calm - N/A   Clear
3:15 PM 45.5 °F - -1.3 °F 14% 30.23 in 10.0 mi Calm Calm - N/A   Clear
3:35 PM 45.5 °F - -2.6 °F 13% 30.22 in 10.0 mi Calm Calm - N/A   Clear
3:55 PM 45.5 °F - -2.6 °F 13% 30.21 in 10.0 mi Calm Calm - N/A   Clear
4:15 PM 45.3 °F 44.0 °F -2.4 °F 14% 30.21 in 10.0 mi ENE 3.5 mph - N/A   Clear
4:35 PM 44.8 °F - -2.4 °F 14% 30.21 in 10.0 mi Calm Calm - N/A   Clear
4:55 PM 43.5 °F 41.9 °F -2.2 °F 15% 30.21 in 10.0 mi NE 3.5 mph - N/A   Clear
5:15 PM 41.2 °F 39.2 °F -2.2 °F 16% 30.21 in 10.0 mi NE 3.5 mph - N/A   Clear
5:35 PM 39.0 °F 36.8 °F -2.4 °F 17% 30.21 in 10.0 mi NE 3.5 mph - N/A   Clear
5:55 PM 36.1 °F 32.3 °F -1.8 °F 20% 30.21 in 10.0 mi NNW 4.6 mph - N/A   Clear
6:15 PM 34.5 °F 30.4 °F -0.8 °F 22% 30.22 in 10.0 mi NNW 4.6 mph - N/A   Clear
6:35 PM 34.0 °F 28.0 °F -0.6 °F 23% 30.22 in 10.0 mi NNW 6.9 mph - N/A   Clear
6:55 PM 32.9 °F 26.7 °F -0.9 °F 24% 30.22 in 10.0 mi NNW 6.9 mph - N/A   Clear
7:15 PM 32.0 °F 25.6 °F -0.9 °F 24% 30.23 in 10.0 mi NW 6.9 mph - N/A   Clear
7:35 PM 33.3 °F 27.1 °F -0.4 °F 24% 30.24 in 10.0 mi NW 6.9 mph - N/A   Clear
7:55 PM 33.4 °F 27.3 °F 0.1 °F 24% 30.25 in 10.0 mi NNW 6.9 mph - N/A   Mostly Cloudy
8:15 PM 32.9 °F 26.7 °F -0.8 °F 24% 30.25 in 10.0 mi NNW 6.9 mph - N/A   Scattered Clouds
8:35 PM 32.0 °F 28.7 °F -1.3 °F 24% 30.26 in 10.0 mi North 3.5 mph - N/A   Clear
8:55 PM 31.1 °F 25.4 °F -1.5 °F 25% 30.26 in 10.0 mi NNW 5.8 mph - N/A   Clear
9:15 PM 29.7 °F 24.7 °F -1.3 °F 26% 30.25 in 10.0 mi North 4.6 mph - N/A   Clear
9:35 PM 29.7 °F - -1.3 °F 26% 30.25 in 10.0 mi Calm Calm - N/A   Clear
9:55 PM 28.0 °F - -1.5 °F 28% 30.25 in 10.0 mi Calm Calm - N/A   Clear
10:15 PM 27.5 °F - -1.3 °F 29% 30.25 in 10.0 mi Calm Calm - N/A   Clear
10:35 PM 27.9 °F 19.1 °F -0.8 °F 29% 30.25 in 10.0 mi NNW 9.2 mph - N/A   Clear
10:55 PM 28.9 °F 22.8 °F -0.4 °F 28% 30.25 in 10.0 mi NW 5.8 mph - N/A   Clear
11:15 PM 30.4 °F 22.9 °F -0.4 °F 27% 30.25 in 10.0 mi NNW 8.1 mph - N/A   Clear
11:35 PM 30.0 °F 24.1 °F -0.4 °F 27% 30.25 in 10.0 mi NNW 5.8 mph - N/A   Clear
11:55 PM 27.3 °F 22.0 °F -0.6 °F 30% 30.25 in 10.0 mi NNW 4.6 mph - N/A   Clear